Weather History for Buena Vista, CO

Change the Weather History Date:

Tuesday, May 28, 2013

  Actual Average (KLXV) Record (KLXV)
Temperature  
Mean Temperature 52 °F -  
Max Temperature 72 °F 59 °F 73 °F (2003)
Min Temperature 33 °F 30 °F 21 °F (1987)
Degree Days  
Heating Degree Days 12 21  
Month to date heating degree days 692  
Since 1 July heating degree days 10693  
Cooling Degree Days 0 0  
Month to date cooling degree days 0  
Year to date cooling degree days 0  
Growing Degree Days 2 (Base 50)    
Moisture  
Dew Point 17 °F    
Average Humidity 27    
Maximum Humidity 63    
Minimum Humidity 8    
Precipitation  
Precipitation 0.00 in 0.02 in 0.06 in (1993)
Month to date precipitation 0.72  
Year to date precipitation 4.05  
Sea Level Pressure  
Sea Level Pressure 29.90 in    
Wind  
Wind Speed 6 mph (SSW)    
Max Wind Speed 25 mph    
Max Gust Speed 32 mph    
Visibility 10 miles    
Events      
T = Trace of Precipitation, MM = Missing Value Source: NWS Daily Summary

Daily Weather History Graph

Daily Weather History Graph

Search for Another Location

Airport:

Trip Planner

Search our weather history database for the weather conditions in past years. The results will help you decide how hot, cold, wet, or windy it might be!

Date:

Astronomy

May. 28, 2013 Rise Set
Actual Time 5:42 AM MDT 8:21 PM MDT
Civil Twilight 5:11 AM MDT 8:52 PM MDT
Nautical Twilight 4:33 AM MDT 9:31 PM MDT
Astronomical Twilight 3:49 AM MDT 10:14 PM MDT
Moon 11:47 PM MDT 9:33 AM MDT
Length of Visible Light 15h 40m
Length of Day
14h 38m
Waning Gibbous, 82% of the Moon is Illuminated
May 28
Waning Gibbous
May 31
Last Quarter
Jun 8
New
Jun 16
First Quarter
Jun 23
Full

Hourly Weather History & Observations

Time (MDT) Temp. Windchill Dew Point Humidity Pressure Visibility Wind Dir Wind Speed Gust Speed Precip Events Conditions
12:15 AM 47.3 °F - 19.2 °F 33% 30.02 in 10.0 mi Calm Calm - N/A   Clear
12:35 AM 44.2 °F - 20.1 °F 38% 30.03 in 10.0 mi Calm Calm - N/A   Clear
12:55 AM 43.7 °F - 20.3 °F 39% 30.03 in 10.0 mi Calm Calm - N/A   Clear
1:15 AM 41.9 °F 40.0 °F 21.0 °F 43% 30.02 in 10.0 mi West 3.5 mph - N/A   Clear
1:35 AM 40.3 °F 36.3 °F 21.4 °F 47% 30.01 in 10.0 mi NW 5.8 mph - N/A   Clear
1:55 AM 41.7 °F 39.8 °F 20.7 °F 43% 30.01 in 10.0 mi North 3.5 mph - N/A   Clear
2:15 AM 44.8 °F - 19.9 °F 37% 30.01 in 10.0 mi Calm Calm - N/A   Clear
2:35 AM 43.5 °F - 16.9 °F 34% 30.01 in 10.0 mi Calm Calm - N/A   Clear
2:55 AM 41.5 °F 38.6 °F 18.1 °F 39% 30.01 in 10.0 mi SE 4.6 mph - N/A   Clear
3:15 AM 42.3 °F - 17.4 °F 37% 30.01 in 10.0 mi Calm Calm - N/A   Clear
3:35 AM 41.2 °F - 18.1 °F 40% 30.00 in 10.0 mi Calm Calm - N/A   Clear
3:55 AM 36.9 °F 33.1 °F 20.1 °F 51% 30.00 in 10.0 mi SW 4.6 mph - N/A   Clear
4:15 AM 34.0 °F 28.0 °F 21.4 °F 60% 30.00 in 10.0 mi WNW 6.9 mph - N/A   Clear
4:35 AM 35.8 °F 33.0 °F 22.1 °F 58% 30.00 in 10.0 mi WNW 3.5 mph - N/A   Clear
4:55 AM 33.8 °F 28.6 °F 22.1 °F 62% 30.00 in 10.0 mi West 5.8 mph - N/A   Clear
5:15 AM 34.3 °F 30.2 °F 22.1 °F 61% 30.00 in 10.0 mi WNW 4.6 mph - N/A   Clear
5:35 AM 33.6 °F - 21.7 °F 62% 30.00 in 10.0 mi Calm Calm - N/A   Clear
5:55 AM 34.2 °F 30.0 °F 22.6 °F 63% 30.00 in 10.0 mi WNW 4.6 mph - N/A   Clear
6:15 AM 36.1 °F 33.5 °F 21.6 °F 56% 30.00 in 10.0 mi NNW 3.5 mph - N/A   Clear
6:35 AM 39.6 °F - 23.5 °F 53% 30.00 in 10.0 mi Calm Calm - N/A   Clear
6:55 AM 41.7 °F - 22.8 °F 47% 30.00 in 10.0 mi Calm Calm - N/A   Clear
7:15 AM 43.7 °F 42.1 °F 22.1 °F 42% 30.00 in 10.0 mi NW 3.5 mph - N/A   Clear
7:35 AM 43.9 °F - 21.0 °F 40% 30.00 in 10.0 mi Calm Calm - N/A   Clear
7:55 AM 46.9 °F - 21.4 °F 36% 30.00 in 10.0 mi Calm Calm - N/A   Clear
8:15 AM 48.6 °F - 19.2 °F 31% 30.00 in 10.0 mi Calm Calm - N/A   Clear
8:35 AM 50.4 °F - 18.5 °F 28% 29.99 in 10.0 mi Calm Calm - N/A   Clear
8:55 AM 52.5 °F - 18.3 °F 26% 29.99 in 10.0 mi Calm Calm - N/A   Clear
9:15 AM 53.4 °F - 16.7 °F 24% 29.99 in 10.0 mi Calm Calm - N/A   Clear
9:35 AM 55.6 °F - 18.5 °F 23% 29.99 in 10.0 mi SE 4.6 mph - N/A   Clear
9:55 AM 56.3 °F - 19.0 °F 23% 29.97 in 10.0 mi Calm Calm - N/A   Clear
10:15 AM 59.2 °F - 19.0 °F 21% 29.96 in 10.0 mi ESE 8.1 mph - N/A   Clear
10:35 AM 61.0 °F - 17.8 °F 19% 29.95 in 10.0 mi ESE 5.8 mph - N/A   Clear
10:55 AM 64.9 °F - 14.2 °F 14% 29.93 in 10.0 mi SE 16.1 mph 21.9 mph N/A   Clear
11:15 AM 64.4 °F - 13.8 °F 14% 29.92 in 10.0 mi SE 12.7 mph 20.7 mph N/A   Clear
11:35 AM 65.5 °F - 14.0 °F 14% 29.92 in 10.0 mi ESE 15.0 mph 19.6 mph N/A   Clear
11:55 AM 66.6 °F - 13.3 °F 13% 29.91 in 10.0 mi SSE 10.4 mph 24.2 mph N/A   Clear
12:15 PM 67.6 °F - 12.6 °F 12% 29.90 in 10.0 mi SE 19.6 mph 27.6 mph N/A   Clear
12:35 PM 68.7 °F - 12.4 °F 11% 29.89 in 10.0 mi ESE 13.8 mph 23.0 mph N/A   Clear
12:55 PM 70.5 °F - 12.9 °F 11% 29.88 in 10.0 mi SE 13.8 mph 28.8 mph N/A   Clear
1:15 PM 69.1 °F - 11.8 °F 11% 29.87 in 10.0 mi SE 18.4 mph 28.8 mph N/A   Scattered Clouds
1:35 PM 68.7 °F - 11.7 °F 11% 29.86 in 10.0 mi SE 24.2 mph 31.1 mph N/A   Mostly Cloudy
1:55 PM 69.6 °F - 11.8 °F 11% 29.85 in 10.0 mi South 24.2 mph 31.1 mph N/A   Scattered Clouds
2:15 PM 69.8 °F - 12.0 °F 11% 29.85 in 10.0 mi South 18.4 mph 28.8 mph N/A   Mostly Cloudy
2:35 PM 69.3 °F - 12.2 °F 11% 29.84 in 10.0 mi South 15.0 mph 26.5 mph N/A   Mostly Cloudy
2:55 PM 70.0 °F - 12.0 °F 11% 29.83 in 10.0 mi SSE 17.3 mph 24.2 mph N/A   Scattered Clouds
3:15 PM 70.5 °F - 11.1 °F 10% 29.82 in 10.0 mi SSW 13.8 mph 23.0 mph N/A   Scattered Clouds
3:35 PM 70.0 °F - 11.7 °F 11% 29.81 in 10.0 mi South 12.7 mph 24.2 mph N/A   Clear
3:55 PM 69.3 °F - 9.5 °F 10% 29.80 in 10.0 mi SSW 8.1 mph 18.4 mph N/A   Scattered Clouds
4:15 PM 70.9 °F - 9.7 °F 9% 29.79 in 10.0 mi SSW 13.8 mph 28.8 mph N/A   Scattered Clouds
4:35 PM 72.3 °F - 8.4 °F 8% 29.79 in 10.0 mi South 16.1 mph 28.8 mph N/A   Clear
4:55 PM 70.3 °F - 8.8 °F 9% 29.79 in 10.0 mi SW 16.1 mph 26.5 mph N/A   Clear
5:15 PM 70.3 °F - 5.5 °F 8% 29.78 in 10.0 mi South 15.0 mph 32.2 mph N/A   Clear
5:35 PM 68.4 °F - 4.8 °F 8% 29.79 in 10.0 mi SSW 16.1 mph 28.8 mph N/A   Clear
5:55 PM 69.6 °F - 3.9 °F 8% 29.78 in 10.0 mi SW 21.9 mph 28.8 mph N/A   Clear
6:15 PM 69.6 °F - 5.2 °F 8% 29.78 in 10.0 mi SSW 17.3 mph 29.9 mph N/A   Clear
6:35 PM 68.0 °F - 3.7 °F 8% 29.78 in 10.0 mi South 15.0 mph 25.3 mph N/A   Clear
6:55 PM 68.2 °F - 6.1 °F 9% 29.79 in 10.0 mi SSW 16.1 mph 23.0 mph N/A   Clear
7:15 PM 65.8 °F - 8.8 °F 11% 29.79 in 10.0 mi SW 20.7 mph 26.5 mph N/A   Clear
7:35 PM 63.7 °F - 10.4 °F 12% 29.79 in 10.0 mi WSW 19.6 mph 25.3 mph N/A   Clear
7:55 PM 62.2 °F - 14.2 °F 15% 29.80 in 10.0 mi West 25.3 mph 29.9 mph N/A   Clear
8:15 PM 58.8 °F - 23.0 °F 25% 29.80 in 10.0 mi West 17.3 mph 24.2 mph N/A   Clear
8:35 PM 58.1 °F - 21.4 °F 24% 29.81 in 10.0 mi West 16.1 mph 21.9 mph N/A   Clear
8:55 PM 57.2 °F - 22.6 °F 26% 29.82 in 10.0 mi West 10.4 mph - N/A   Clear
9:15 PM 56.7 °F - 22.1 °F 26% 29.82 in 10.0 mi North 5.8 mph - N/A   Clear
9:35 PM 56.1 °F - 21.4 °F 26% 29.83 in 10.0 mi NNW 5.8 mph - N/A   Clear
9:55 PM 57.4 °F - 20.7 °F 24% 29.83 in 10.0 mi NNW 8.1 mph - N/A   Clear
10:15 PM 57.7 °F - 20.3 °F 23% 29.83 in 10.0 mi NNW 3.5 mph - N/A   Scattered Clouds
10:35 PM 57.0 °F - 20.3 °F 24% 29.83 in 10.0 mi SSW 3.5 mph - N/A   Scattered Clouds
10:55 PM 51.4 °F - 21.2 °F 31% 29.82 in 10.0 mi WSW 8.1 mph - N/A   Clear
11:15 PM 50.9 °F - 21.2 °F 31% 29.82 in 10.0 mi West 6.9 mph - N/A   Clear
11:35 PM 49.3 °F - 21.7 °F 34% 29.81 in 10.0 mi Calm Calm - N/A   Clear
11:55 PM 48.9 °F - 21.2 °F 34% 29.81 in 10.0 mi North 3.5 mph - N/A   Clear